This demonstration page uses our WeatherBlox Daily Observations layout. Learn more.

Left ArrowRight Arrow

41.12389, -100.76542

Hourly Observations for July 9, 2016

Temp ( °F °C ) Dew Point ( °F °C ) Humidity (%) Winds ( mph kmh ) Pressure ( in mb ) Visibility ( mi km ) Precip ( " mm )
12:53 am 00:53 Clear with Mist and Fog 70 21.1 69 20.6 97 97 ESE 10 17 29.91 1013 6 10 0.00 0.00
1:53 am 01:53 Clear with Mist and Fog 70 21.1 69 20.6 97 97 ESE 9 15 29.93 1013 5 8 0.00 0.00
2:08 am 02:08 Mostly Clear with Mist and Fog 70 21.1 69 20.6 97 97 ESE 9 15 29.88 1012 4 6 0.00 0.00
2:53 am 02:53 Mostly Cloudy with Mist and Fog 69 20.6 68 20 96 96 E 8 13 29.93 1014 3 5 0.00 0.00
3:09 am 03:09 Partly Cloudy with Mist and Fog 70 21 68 20 94 94 E 9 15 29.91 1013 3 4 0.00 0.00
3:18 am 03:18 Mostly Cloudy with Mist and Fog 68 20 68 20 100 100 E 9 15 29.88 1012 3 4 0.00 0.00
3:53 am 03:53 Cloudy with Mist and Fog 68 20 67 19.4 96 96 ESE 9 15 29.92 1013 2 3 0.00 0.00
4:15 am 04:15 Cloudy with Mist and Fog 68 20 67 19.4 96 96 E 7 11 29.88 1012 1 2 0.00 0.00
4:45 am 04:45 Mostly Cloudy with Fog 67 19.4 67 19.4 100 100 ESE 8 13 29.91 1013 1 1 0.00 0.00
4:53 am 04:53 Mostly Cloudy with Mist and Fog 67 19.4 66 18.9 97 97 E 9 15 29.91 1013 1 1 0.00 0.00
5:18 am 05:18 Mostly Cloudy with Fog 66 19 66 19 100 100 E 9 15 29.91 1013 0 0 0.00 0.00
5:53 am 05:53 Mostly Cloudy with Fog 66 18.9 66 18.9 100 100 ESE 9 15 29.92 1013 0 0 0.00 0.00
6:53 am 06:53 Mostly Cloudy with Fog 66 18.9 66 18.9 100 100 E 8 13 29.92 1013 5 8 0.00 0.00
7:53 am 07:53 Mostly Cloudy with Fog 66 18.9 66 18.9 100 100 E 8 13 29.93 1014 5 8 0.00 0.00
8:45 am 08:45 Mostly Cloudy with Mist and Fog 68 20 66 19 94 94 SE 9 15 29.88 1012 1 2 0.00 0.00
8:48 am 08:48 Mostly Cloudy with Mist and Fog 68 20 66 19 94 94 ESE 7 11 29.88 1012 2 3 0.00 0.00
8:53 am 08:53 Cloudy with Mist and Fog 69 20.6 68 20 96 96 E 7 11 29.93 1014 3 4 0.00 0.00
9:04 am 09:04 Cloudy with Mist and Fog 70 21 68 20 94 94 E 7 11 29.91 1013 2 2 0.00 0.00
9:11 am 09:11 Mostly Cloudy with Mist and Fog 69 20.6 68 20 96 96 ESE 7 11 29.91 1013 1 2 0.00 0.00
9:15 am 09:15 Mostly Cloudy with Mist and Fog 70 21.1 68 20 93 93 ESE 7 11 29.88 1012 2 3 0.00 0.00
9:20 am 09:20 Partly Cloudy with Mist and Fog 72 22 70 21 94 94 ESE 8 13 29.88 1012 5 8 0.00 0.00
9:53 am 09:53 Sunny 74 23.3 70 21.1 88 88 ESE 7 11 29.93 1014 10 16 0.00 0.00
10:53 am 10:53 Sunny 82 27.8 71 21.7 69 69 SSE 5 7 29.91 1013 10 16 0.00 0.00
11:53 am 11:53 Sunny 87 30.6 70 21.1 57 57 S 8 13 29.91 1013 10 16 0.00 0.00
12:53 pm 12:53 Sunny 91 32.8 67 19.4 45 45 S 15 24 29.89 1012 10 16 0.00 0.00
1:53 pm 13:53 Sunny 91 32.8 66 18.9 44 44 S 14 22 29.87 1012 10 16 0.00 0.00
2:53 pm 14:53 Sunny 93 33.9 68 20 44 44 SSE 13 20 29.85 1011 10 16 0.00 0.00
3:53 pm 15:53 Sunny 93 33.9 69 20.6 46 46 SSE 13 20 29.84 1011 10 16 0.00 0.00
4:53 pm 16:53 Sunny 93 33.9 67 19.4 42 42 S 15 24 29.83 1010 10 16 0.00 0.00
5:53 pm 17:53 Sunny 93 33.9 67 19.4 42 42 SSE 15 24 29.80 1009 10 16 0.00 0.00
6:53 pm 18:53 Sunny 91 32.8 67 19.4 45 45 SSE 14 22 29.80 1009 10 16 0.00 0.00
7:53 pm 19:53 Sunny 86 30 67 19.4 53 53 SE 9 15 29.80 1009 10 16 0.00 0.00
8:53 pm 20:53 Sunny 82 27.8 68 20 63 63 SE 8 13 29.80 1009 10 16 0.00 0.00
9:53 pm 21:53 Clear 80 26.7 68 20 67 67 SE 8 13 29.80 1009 10 16 0.00 0.00
10:53 pm 22:53 Clear 80 26.7 68 20 67 67 SE 9 15 29.80 1009 10 16 0.00 0.00
11:53 pm 23:53 Clear 77 25 68 20 74 74 ESE 10 17 29.81 1009 10 16 0.00 0.00

Powered by AerisWeather